Weather History for Abingdon, VA

Change the Weather History Date:

Wednesday, May 8, 2013

  Actual Average (KTRI) Record (KTRI)
Temperature  
Mean Temperature 58 °F 61 °F  
Max Temperature 63 °F 74 °F 91 °F (1940)
Min Temperature 52 °F 49 °F 30 °F (1989)
Degree Days  
Heating Degree Days 6 5  
Month to date heating degree days 43  
Since 1 July heating degree days 4297  
Cooling Degree Days 0 1  
Month to date cooling degree days 8  
Year to date cooling degree days 19  
Growing Degree Days 8 (Base 50)    
Moisture  
Dew Point 57 °F    
Average Humidity 97    
Maximum Humidity 100    
Minimum Humidity 82    
Precipitation  
Precipitation 0.42 in 0.12 in 1.20 in (1975)
Month to date precipitation 0.94  
Year to date precipitation 14.53  
Snow  
Snow 0.00 in 0.00 in - ()
Month to date snowfall 0.0  
Since 1 July snowfall 13.3  
Snow Depth -    
Sea Level Pressure  
Sea Level Pressure 29.99 in    
Wind  
Wind Speed 4 mph (West)    
Max Wind Speed 14 mph    
Max Gust Speed 20 mph    
Visibility 6 miles    
Events Fog , Rain    
T = Trace of Precipitation, MM = Missing Value Source: NWS Daily Summary

Daily Weather History Graph

Daily Weather History Graph

Search for Another Location

Airport:

Trip Planner

Search our weather history database for the weather conditions in past years. The results will help you decide how hot, cold, wet, or windy it might be!

Date:

Astronomy

May. 08, 2013 Rise Set
Actual Time 6:26 AM EDT 8:22 PM EDT
Civil Twilight 5:58 AM EDT 8:51 PM EDT
Nautical Twilight 5:24 AM EDT 9:25 PM EDT
Astronomical Twilight 4:47 AM EDT 10:02 PM EDT
Moon 5:32 AM EDT (5/8) 7:21 PM EDT (5/8)
Length of Visible Light 14h 52m
Length of Day
13h 56m
Waning Crescent, 2% of the Moon is Illuminated
May 8
Waning Crescent
May 9
New
May 18
First Quarter
May 25
Full
May 31
Last Quarter

Hourly Weather History & Observations

Time (EDT) Temp. Dew Point Humidity Pressure Visibility Wind Dir Wind Speed Gust Speed Precip Events Conditions
12:15 AM 54.0 °F 54.0 °F 100% 29.97 in 3.0 mi Calm Calm - N/A   Overcast
12:35 AM 54.0 °F 54.0 °F 100% 29.97 in 3.0 mi Calm Calm - N/A   Overcast
12:55 AM 54.3 °F 54.3 °F 100% 29.97 in 3.0 mi Calm Calm - N/A   Overcast
1:15 AM 54.5 °F 54.5 °F 100% 29.95 in 3.0 mi West 3.5 mph - N/A   Overcast
1:35 AM 54.5 °F 54.5 °F 100% 29.95 in 3.0 mi West 3.5 mph - N/A   Overcast
1:55 AM 54.5 °F 54.5 °F 100% 29.94 in 3.0 mi WSW 3.5 mph - N/A   Overcast
2:15 AM 54.5 °F 54.5 °F 100% 29.94 in 2.5 mi West 4.6 mph - N/A   Overcast
2:35 AM 54.5 °F 54.5 °F 100% 29.93 in 1.8 mi West 3.5 mph - N/A   Light Drizzle
2:55 AM 54.5 °F 54.5 °F 100% 29.93 in 1.2 mi Calm Calm - N/A   Overcast
3:15 AM 54.5 °F 54.5 °F 100% 29.94 in 2.0 mi Calm Calm - N/A Rain Light Rain
3:35 AM 54.5 °F 54.5 °F 100% 29.93 in 1.2 mi West 3.5 mph - N/A   Overcast
3:55 AM 54.5 °F 54.5 °F 100% 29.93 in 3.0 mi West 3.5 mph - N/A   Overcast
4:15 AM 54.5 °F 54.5 °F 100% 29.93 in 4.0 mi West 3.5 mph - N/A   Overcast
4:35 AM 54.5 °F 54.5 °F 100% 29.93 in 2.0 mi Calm Calm - N/A   Overcast
4:55 AM 54.7 °F 54.7 °F 100% 29.94 in 4.0 mi West 4.6 mph - N/A   Overcast
5:15 AM 54.7 °F 54.7 °F 100% 29.94 in 4.0 mi WNW 4.6 mph - N/A   Overcast
5:35 AM 54.9 °F 54.9 °F 100% 29.94 in 5.0 mi WNW 4.6 mph - N/A   Light Drizzle
5:55 AM 54.9 °F 54.9 °F 100% 29.94 in 5.0 mi West 3.5 mph - N/A   Overcast
6:15 AM 54.9 °F 54.9 °F 100% 29.95 in 4.0 mi West 3.5 mph - N/A   Overcast
6:35 AM 54.9 °F 54.9 °F 100% 29.95 in 4.0 mi West 4.6 mph - N/A Rain Rain
6:55 AM 54.9 °F 54.9 °F 100% 29.95 in 3.0 mi West 5.8 mph - 0.01 in   Overcast
7:15 AM 54.9 °F 54.9 °F 100% 29.96 in 2.5 mi West 5.8 mph - N/A   Overcast
7:35 AM 54.9 °F 54.9 °F 100% 29.97 in 0.8 mi West 6.9 mph - N/A   Overcast
7:55 AM 54.9 °F 54.9 °F 100% 29.98 in 0.8 mi West 5.8 mph - N/A   Overcast
8:15 AM 55.0 °F 55.0 °F 100% 29.98 in 3.0 mi West 8.1 mph - N/A   Overcast
8:35 AM 55.4 °F 55.4 °F 100% 29.98 in 4.0 mi WNW 6.9 mph - N/A   Overcast
8:55 AM 55.8 °F 55.8 °F 100% 29.99 in 4.0 mi West 5.8 mph - N/A   Overcast
9:15 AM 56.3 °F 56.3 °F 100% 29.99 in 5.0 mi West 8.1 mph - N/A   Overcast
9:35 AM 56.8 °F 56.8 °F 100% 29.98 in 7.0 mi West 11.5 mph - N/A   Overcast
9:55 AM 57.2 °F 57.2 °F 100% 29.99 in 5.0 mi West 8.1 mph - N/A   Overcast
10:15 AM 57.4 °F 57.4 °F 100% 29.99 in 7.0 mi West 6.9 mph - N/A   Overcast
10:35 AM 58.1 °F 57.6 °F 98% 30.00 in 10.0 mi West 9.2 mph - N/A   Overcast
10:55 AM 59.0 °F 57.9 °F 96% 30.00 in 10.0 mi West 6.9 mph - N/A   Overcast
11:15 AM 59.9 °F 58.5 °F 95% 29.99 in 10.0 mi West 5.8 mph - N/A   Light Drizzle
11:35 AM 61.0 °F 58.6 °F 92% 30.00 in 10.0 mi West 12.7 mph - N/A   Overcast
11:55 AM 61.2 °F 57.6 °F 88% 30.00 in 10.0 mi West 10.4 mph 16.1 mph N/A   Overcast
12:15 PM 61.7 °F 57.4 °F 86% 30.00 in 10.0 mi West 10.4 mph - N/A   Overcast
12:35 PM 62.4 °F 58.1 °F 86% 29.99 in 10.0 mi West 13.8 mph 17.3 mph N/A   Overcast
12:55 PM 62.8 °F 58.1 °F 85% 29.99 in 10.0 mi West 10.4 mph - N/A   Overcast
1:15 PM 62.2 °F 56.8 °F 82% 29.99 in 10.0 mi WNW 8.1 mph 16.1 mph N/A   Overcast
1:35 PM 61.7 °F 57.2 °F 85% 29.99 in 7.0 mi WNW 5.8 mph - N/A   Light Drizzle
1:55 PM 60.4 °F 58.3 °F 93% 29.99 in 4.0 mi WNW 5.8 mph - 0.03 in Rain Rain
2:15 PM 61.5 °F 59.7 °F 94% 29.99 in 10.0 mi WNW 9.2 mph - N/A   Overcast
2:35 PM 63.0 °F 60.3 °F 91% 29.99 in 10.0 mi West 10.4 mph - N/A   Overcast
2:55 PM 61.0 °F 59.4 °F 94% 30.00 in 7.0 mi WNW 3.5 mph - N/A Rain Rain
3:15 PM 61.9 °F 59.9 °F 93% 29.99 in 10.0 mi WNW 9.2 mph - 0.01 in   Overcast
3:35 PM 61.5 °F 59.2 °F 92% 29.99 in 7.0 mi WNW 4.6 mph - 0.01 in Rain Light Rain
3:55 PM 62.8 °F 59.2 °F 88% 29.99 in 10.0 mi West 8.1 mph - 0.01 in   Overcast
4:15 PM 63.0 °F 58.3 °F 85% 29.99 in 10.0 mi NNW 12.7 mph 19.6 mph N/A   Overcast
4:35 PM 59.0 °F 57.7 °F 96% 30.00 in 2.0 mi NNW 9.2 mph 18.4 mph 0.16 in Rain Heavy Rain
4:55 PM 59.0 °F 58.3 °F 97% 30.00 in 4.0 mi NW 6.9 mph - 0.30 in Rain Light Rain
5:15 PM 59.9 °F 59.0 °F 97% 30.00 in 10.0 mi NW 5.8 mph - N/A   Overcast
5:35 PM 61.0 °F 59.9 °F 96% 30.01 in 10.0 mi WNW 3.5 mph - N/A   Mostly Cloudy
5:55 PM 60.8 °F 59.9 °F 97% 30.01 in 10.0 mi NW 5.8 mph - N/A Rain Light Rain
6:15 PM 60.8 °F 59.7 °F 96% 30.02 in 10.0 mi Calm Calm - N/A   Light Drizzle
6:35 PM 61.0 °F 59.7 °F 96% 30.01 in 10.0 mi Calm Calm - N/A   Overcast
6:55 PM 60.8 °F 59.5 °F 96% 30.02 in 10.0 mi Calm Calm - N/A   Overcast
7:15 PM 60.3 °F 60.1 °F 99% 30.03 in 10.0 mi Calm Calm - 0.07 in   Overcast
7:35 PM 60.1 °F 59.9 °F 99% 30.03 in 10.0 mi Calm Calm - 0.07 in   Overcast
7:55 PM 59.7 °F 59.7 °F 100% 30.04 in 10.0 mi Calm Calm - 0.07 in   Overcast
8:15 PM 59.5 °F 59.5 °F 100% 30.04 in 10.0 mi Calm Calm - N/A   Overcast
8:35 PM 59.2 °F 59.2 °F 100% 30.04 in 7.0 mi Calm Calm - N/A   Overcast
8:55 PM 58.1 °F 58.1 °F 100% 30.05 in 7.0 mi West 3.5 mph - N/A   Scattered Clouds
9:15 PM 58.1 °F 58.1 °F 100% 30.05 in 10.0 mi Calm Calm - N/A   Clear
9:35 PM 57.4 °F 57.4 °F 100% 30.05 in 2.5 mi Calm Calm - N/A   Scattered Clouds
9:55 PM 56.3 °F 56.3 °F 100% 30.06 in 0.2 mi Calm Calm - N/A Fog Fog
10:15 PM 55.0 °F 55.0 °F 100% 30.06 in 0.2 mi Calm Calm - N/A Fog Fog
10:35 PM 55.2 °F 55.2 °F 100% 30.07 in 0.2 mi Calm Calm - N/A Fog Fog
10:55 PM 55.0 °F 55.0 °F 100% 30.07 in 0.5 mi Calm Calm - N/A Fog Fog
11:15 PM 54.5 °F 54.5 °F 100% 30.07 in 0.8 mi Calm Calm - N/A   Overcast
11:35 PM 54.5 °F 54.5 °F 100% 30.07 in 0.8 mi Calm Calm - N/A   Mostly Cloudy
11:55 PM 52.9 °F 52.9 °F 100% 30.07 in 0.5 mi Calm Calm - N/A Fog Fog